TimeEST,TemperatureF,Dew PointF,Humidity,Sea Level PressureIn,VisibilityMPH,Wind Direction,Wind SpeedMPH,Gust SpeedMPH,PrecipitationIn,Events,Conditions,WindDirDegrees,DateUTC
1:16 AM,53.6,48.2,82,29.93,6.0,SW,12.7,21.9,0.01,Rain,Light Rain,220,2012-02-01 06:16:00
1:53 AM,52.0,48.9,89,29.93,5.0,SW,15.0,24.2,0.04,Rain,Light Rain,220,2012-02-01 06:53:00
2:00 AM,51.8,48.2,88,29.94,3.0,SW,10.4,24.2,0.02,Rain,Rain,230,2012-02-01 07:00:00
2:32 AM,51.8,48.2,88,29.94,10.0,SW,11.5,-,0.04,,Overcast,220,2012-02-01 07:32:00
2:39 AM,51.8,48.2,88,29.94,10.0,SW,10.4,19.6,0.04,,Overcast,220,2012-02-01 07:39:00
4:39 AM,53.6,48.2,82,29.97,10.0,West,11.5,-,0.01,,Overcast,260,2012-02-01 09:39:00
4:46 AM,53.6,48.2,82,29.98,9.0,West,11.5,-,0.01,,Overcast,270,2012-02-01 09:46:00
4:53 AM,53.1,48.9,86,29.97,9.0,West,10.4,-,0.01,,Overcast,270,2012-02-01 09:53:00
5:10 AM,51.8,48.2,88,29.99,9.0,West,11.5,-,N/A,,Mostly Cloudy,270,2012-02-01 10:10:00
6:53 AM,46.9,45.0,93,30.02,5.0,West,6.9,-,N/A,,Clear,270,2012-02-01 11:53:00
7:53 AM,44.1,41.0,89,30.04,6.0,West,5.8,-,N/A,,Clear,280,2012-02-01 12:53:00
8:53 AM,45.0,42.1,90,30.06,5.0,WNW,9.2,-,N/A,,Clear,290,2012-02-01 13:53:00
9:27 AM,44.6,39.2,81,30.08,8.0,WNW,10.4,-,N/A,,Partly Cloudy,290,2012-02-01 14:27:00
9:53 AM,44.1,37.9,79,30.08,10.0,WNW,10.4,-,N/A,,Partly Cloudy,300,2012-02-01 14:53:00
10:53 AM,46.0,39.0,76,30.08,10.0,West,6.9,-,N/A,,Clear,260,2012-02-01 15:53:00
11:53 AM,48.0,39.9,74,30.08,10.0,WNW,5.8,-,N/A,,Clear,290,2012-02-01 16:53:00
1:53 PM,50.0,39.9,68,30.05,10.0,NW,5.8,-,N/A,,Clear,320,2012-02-01 18:53:00
2:53 PM,52.0,39.9,63,30.04,10.0,WNW,6.9,-,N/A,,Clear,300,2012-02-01 19:53:00
3:53 PM,51.1,39.9,66,30.05,10.0,NW,5.8,-,N/A,,Clear,320,2012-02-01 20:53:00
5:53 PM,46.9,41.0,80,30.07,10.0,NNW,5.8,-,N/A,,Clear,340,2012-02-01 22:53:00
6:53 PM,44.1,39.0,82,30.09,10.0,North,6.9,-,N/A,,Clear,360,2012-02-01 23:53:00
7:53 PM,42.1,37.9,85,30.06,5.0,NE,9.2,-,N/A,,Clear,40,2012-02-02 00:53:00
8:53 PM,39.9,36.0,86,30.09,5.0,NNE,8.1,-,N/A,,Clear,30,2012-02-02 01:53:00
9:53 PM,37.9,35.1,89,30.10,5.0,North,5.8,-,N/A,,Clear,10,2012-02-02 02:53:00
10:53 PM,37.9,34.0,86,30.11,5.0,NNE,5.8,-,N/A,,Clear,20,2012-02-02 03:53:00
11:53 PM,37.0,34.0,89,30.12,5.0,NNE,3.5,-,N/A,,Clear,20,2012-02-02 04:53:00